Location: Le Domaine
(47.0333°N, 76.5361°W)
Time: 20:00:38
(UTC-05:00)

Courier 1B Rocket - Visible Passes

Search period start: 24 January 2021 00:00
Search period end: 03 February 2021 00:00
Orbit: 920 x 1202 km, 28.2° (Epoch: 24 January)

Date Brightness Start Highest point End Pass type
(mag) Time Alt. Az. Time Alt. Az. Time Alt. Az.
25 Jan 7.5 06:57:37 10° SSW 07:00:52 14° SSE 07:04:12 10° SE visible
26 Jan 7.5 05:58:19 10° S 06:00:12 11° SSE 06:02:08 10° SSE visible
27 Jan 7.3 06:48:09 10° SSW 06:51:38 15° S 06:55:15 10° SE visible
28 Jan 7.3 05:48:13 10° SSW 05:50:59 13° SSE 05:53:48 10° SE visible
29 Jan 7.3 04:49:15 10° S 04:50:22 10° SSE 04:51:30 10° SSE visible
29 Jan 7.2 06:39:01 10° SSW 06:42:26 15° S 06:45:59 10° SSE visible
30 Jan 7.1 05:38:44 10° SSW 05:41:47 14° S 05:44:55 10° SE visible
31 Jan 7.1 04:40:08 12° S 04:41:10 12° S 04:43:32 10° SSE visible
31 Jan 7.1 06:30:12 10° SSW 06:33:17 14° S 06:36:25 10° SSE visible
01 Feb 7.0 05:29:36 10° SSW 05:32:38 14° S 05:35:43 10° SSE visible
02 Feb 7.0 04:32:07 13° S 04:32:07 13° S 04:34:47 10° SSE visible
02 Feb 7.1 06:21:52 10° SSW 06:24:07 12° S 06:26:24 10° SSE visible
